Time,TemperatureF,DewpointF,PressureIn,WindDirection,WindDirectionDegrees,WindSpeedMPH,WindSpeedGustMPH,Humidity,HourlyPrecipIn,Conditions,Clouds,dailyrainin,SoftwareType,DateUTC
2013-07-04 00:00:00,70.7,66.3,30.18,SSW,202,5.1,-999.0,86,-99.99,,,0.00,Acu-Link.com,2013-07-04 04:00:00,
2013-07-04 00:15:00,70.5,66.1,30.18,SSW,202,4.3,-999.0,86,-99.99,,,0.00,Acu-Link.com,2013-07-04 04:15:00,
2013-07-04 00:31:00,70.2,66.4,30.18,SSW,202,5.1,-999.0,88,-99.99,,,0.00,Acu-Link.com,2013-07-04 04:31:00,
2013-07-04 00:46:00,69.8,66.1,30.18,SSW,202,3.1,-999.0,88,-99.99,,,0.00,Acu-Link.com,2013-07-04 04:46:00,
2013-07-04 01:01:00,69.4,66.1,30.17,SSW,202,2.2,-999.0,89,-99.99,,,0.00,Acu-Link.com,2013-07-04 05:01:00,
2013-07-04 01:16:00,69.1,66.0,30.17,NNE,22,0.0,-999.0,90,-99.99,,,0.00,Acu-Link.com,2013-07-04 05:16:00,
2013-07-04 01:31:00,69.1,66.3,30.17,ESE,112,0.0,-999.0,91,-99.99,,,0.00,Acu-Link.com,2013-07-04 05:31:00,
2013-07-04 01:47:00,69.1,66.3,30.17,SSW,202,3.1,-999.0,91,-99.99,,,0.00,Acu-Link.com,2013-07-04 05:47:00,
2013-07-04 02:02:00,69.1,66.0,30.17,WSW,247,2.2,-999.0,90,-99.99,,,0.00,Acu-Link.com,2013-07-04 06:02:00,
2013-07-04 02:17:00,69.1,66.0,30.17,South,180,0.0,-999.0,90,-99.99,,,0.00,Acu-Link.com,2013-07-04 06:17:00,
2013-07-04 02:32:00,69.1,66.0,30.17,SSE,157,0.0,-999.0,90,-99.99,,,0.00,Acu-Link.com,2013-07-04 06:32:00,
2013-07-04 02:48:00,69.6,66.2,30.17,SW,225,0.0,-999.0,89,-99.99,,,0.00,Acu-Link.com,2013-07-04 06:48:00,
2013-07-04 03:03:00,69.8,66.4,30.17,West,270,2.7,-999.0,89,-99.99,,,0.00,Acu-Link.com,2013-07-04 07:03:00,
2013-07-04 03:18:00,70.0,66.6,30.17,West,270,2.2,-999.0,89,-99.99,,,0.00,Acu-Link.com,2013-07-04 07:18:00,
2013-07-04 03:33:00,70.5,67.1,30.17,SW,225,2.7,-999.0,89,-99.99,,,0.00,Acu-Link.com,2013-07-04 07:33:00,
2013-07-04 03:48:00,70.3,66.9,30.16,WSW,247,0.0,-999.0,89,-99.99,,,0.00,Acu-Link.com,2013-07-04 07:48:00,
2013-07-04 04:04:00,70.2,67.1,30.16,South,180,0.0,-999.0,90,-99.99,,,0.00,Acu-Link.com,2013-07-04 08:04:00,
2013-07-04 04:19:00,70.2,67.1,30.16,SSW,202,2.2,-999.0,90,-99.99,,,0.00,Acu-Link.com,2013-07-04 08:19:00,
2013-07-04 04:35:00,70.3,67.3,30.16,SSW,202,2.2,-999.0,90,-99.99,,,0.00,Acu-Link.com,2013-07-04 08:35:00,
2013-07-04 04:50:00,70.2,67.1,30.16,WSW,247,1.6,-999.0,90,-99.99,,,0.00,Acu-Link.com,2013-07-04 08:50:00,
2013-07-04 05:05:00,70.2,67.1,30.16,South,180,0.0,-999.0,90,-99.99,,,0.00,Acu-Link.com,2013-07-04 09:05:00,
2013-07-04 05:20:00,70.0,67.2,30.16,SE,135,0.0,-999.0,91,-99.99,,,0.00,Acu-Link.com,2013-07-04 09:20:00,
2013-07-04 05:35:00,70.0,67.2,30.16,SSW,202,0.0,-999.0,91,-99.99,,,0.00,Acu-Link.com,2013-07-04 09:35:00,
2013-07-04 05:50:00,70.3,67.6,30.17,SSE,157,0.0,-999.0,91,-99.99,,,0.00,Acu-Link.com,2013-07-04 09:50:00,
2013-07-04 06:06:00,70.5,67.8,30.17,SSW,202,2.7,-999.0,91,-99.99,,,0.00,Acu-Link.com,2013-07-04 10:06:00,
2013-07-04 06:21:00,70.5,67.8,30.17,SSW,202,1.6,-999.0,91,-99.99,,,0.01,Acu-Link.com,2013-07-04 10:21:00,
2013-07-04 06:36:00,70.7,67.9,30.18,SSW,202,2.7,-999.0,91,-99.99,,,0.01,Acu-Link.com,2013-07-04 10:36:00,
2013-07-04 06:51:00,70.9,67.8,30.17,WSW,247,1.6,-999.0,90,-99.99,,,0.01,Acu-Link.com,2013-07-04 10:51:00,
2013-07-04 07:06:00,70.9,68.1,30.18,South,180,2.2,-999.0,91,-99.99,,,0.01,Acu-Link.com,2013-07-04 11:06:00,
2013-07-04 07:22:00,70.9,68.4,30.18,SSE,157,0.0,-999.0,92,-99.99,,,0.01,Acu-Link.com,2013-07-04 11:22:00,
2013-07-04 07:37:00,70.7,68.3,30.19,SE,135,0.0,-999.0,92,-99.99,,,0.01,Acu-Link.com,2013-07-04 11:37:00,
2013-07-04 07:52:00,70.7,68.3,30.19,SSE,157,0.0,-999.0,92,-99.99,,,0.01,Acu-Link.com,2013-07-04 11:52:00,
2013-07-04 08:07:00,71.1,68.3,30.19,ESE,112,0.0,-999.0,91,-99.99,,,0.01,Acu-Link.com,2013-07-04 12:07:00,
2013-07-04 08:22:00,71.2,68.5,30.20,South,180,0.0,-999.0,91,-99.99,,,0.01,Acu-Link.com,2013-07-04 12:22:00,
2013-07-04 08:38:00,71.6,68.8,30.20,ESE,112,0.0,-999.0,91,-99.99,,,0.01,Acu-Link.com,2013-07-04 12:38:00,
2013-07-04 08:53:00,72.3,69.5,30.20,SSW,202,0.0,-999.0,91,-99.99,,,0.01,Acu-Link.com,2013-07-04 12:53:00,
2013-07-04 09:08:00,73.6,69.8,30.20,SSW,202,0.0,-999.0,88,-99.99,,,0.01,Acu-Link.com,2013-07-04 13:08:00,
2013-07-04 09:23:00,73.8,69.3,30.20,West,270,2.2,-999.0,86,-99.99,,,0.01,Acu-Link.com,2013-07-04 13:23:00,
2013-07-04 09:38:00,72.9,68.4,30.21,WSW,247,3.8,-999.0,86,-99.99,,,0.01,Acu-Link.com,2013-07-04 13:38:00,
2013-07-04 09:54:00,72.3,68.2,30.22,West,270,4.7,-999.0,87,-99.99,,,0.01,Acu-Link.com,2013-07-04 13:54:00,
2013-07-04 10:09:00,71.4,68.0,30.21,West,270,5.1,-999.0,89,-99.99,,,0.01,Acu-Link.com,2013-07-04 14:09:00,
2013-07-04 10:24:00,71.6,68.2,30.21,West,270,6.3,-999.0,89,-99.99,,,0.01,Acu-Link.com,2013-07-04 14:24:00,
2013-07-04 10:39:00,72.5,68.1,30.22,West,270,5.1,-999.0,86,-99.99,,,0.01,Acu-Link.com,2013-07-04 14:39:00,
2013-07-04 10:55:00,72.5,68.4,30.21,WNW,292,3.8,-999.0,87,-99.99,,,0.01,Acu-Link.com,2013-07-04 14:55:00,
2013-07-04 11:10:00,73.4,68.6,30.21,West,270,2.2,-999.0,85,-99.99,,,0.01,Acu-Link.com,2013-07-04 15:10:00,
2013-07-04 11:25:00,73.6,68.1,30.21,North,0,5.8,-999.0,83,-99.99,,,0.01,Acu-Link.com,2013-07-04 15:25:00,
2013-07-04 11:40:00,75.0,68.8,30.21,South,180,5.8,-999.0,81,-99.99,,,0.01,Acu-Link.com,2013-07-04 15:40:00,
2013-07-04 11:55:00,73.9,67.7,30.21,West,270,3.8,-999.0,81,-99.99,,,0.01,Acu-Link.com,2013-07-04 15:55:00,
2013-07-04 12:11:00,73.6,67.4,30.21,West,270,4.7,-999.0,81,-99.99,,,0.01,Acu-Link.com,2013-07-04 16:11:00,
2013-07-04 12:26:00,73.9,67.0,30.21,West,270,4.7,-999.0,79,-99.99,,,0.01,Acu-Link.com,2013-07-04 16:26:00,
2013-07-04 12:41:00,76.5,68.3,30.21,WSW,247,2.7,-999.0,76,-99.99,,,0.01,Acu-Link.com,2013-07-04 16:41:00,
2013-07-04 12:56:00,77.2,68.2,30.20,SE,135,3.1,-999.0,74,-99.99,,,0.01,Acu-Link.com,2013-07-04 16:56:00,
2013-07-04 13:11:00,75.9,69.7,30.20,ESE,112,2.2,-999.0,81,-99.99,,,0.01,Acu-Link.com,2013-07-04 17:11:00,
2013-07-04 13:26:00,77.4,69.2,30.19,ESE,112,1.6,-999.0,76,-99.99,,,0.01,Acu-Link.com,2013-07-04 17:26:00,
2013-07-04 13:42:00,79.7,69.0,30.19,WSW,247,5.8,-999.0,70,-99.99,,,0.01,Acu-Link.com,2013-07-04 17:42:00,
2013-07-04 13:57:00,81.3,69.3,30.19,SE,135,2.2,-999.0,67,-99.99,,,0.01,Acu-Link.com,2013-07-04 17:57:00,
2013-07-04 14:12:00,81.9,67.5,30.18,SW,225,3.1,-999.0,62,-99.99,,,0.01,Acu-Link.com,2013-07-04 18:12:00,
2013-07-04 14:27:00,80.8,67.0,30.18,WSW,247,3.8,-999.0,63,-99.99,,,0.01,Acu-Link.com,2013-07-04 18:27:00,
2013-07-04 14:42:00,79.7,66.4,30.18,West,270,3.8,-999.0,64,-99.99,,,0.01,Acu-Link.com,2013-07-04 18:42:00,
2013-07-04 14:57:00,82.9,68.1,30.18,West,270,4.3,-999.0,61,-99.99,,,0.01,Acu-Link.com,2013-07-04 18:57:00,
2013-07-04 15:13:00,81.3,66.6,30.18,SW,225,4.3,-999.0,61,-99.99,,,0.01,Acu-Link.com,2013-07-04 19:13:00,
2013-07-04 15:28:00,81.5,66.7,30.17,WSW,247,2.2,-999.0,61,-99.99,,,0.01,Acu-Link.com,2013-07-04 19:28:00,
2013-07-04 15:43:00,82.0,67.2,30.17,SW,225,2.2,-999.0,61,-99.99,,,0.01,Acu-Link.com,2013-07-04 19:43:00,
2013-07-04 15:58:00,83.8,67.5,30.16,WNW,292,3.8,-999.0,58,-99.99,,,0.01,Acu-Link.com,2013-07-04 19:58:00,
2013-07-04 16:13:00,83.5,66.1,30.16,West,270,5.1,-999.0,56,-99.99,,,0.01,Acu-Link.com,2013-07-04 20:13:00,
2013-07-04 16:29:00,84.7,66.8,30.16,West,270,5.1,-999.0,55,-99.99,,,0.01,Acu-Link.com,2013-07-04 20:29:00,
2013-07-04 16:44:00,84.6,66.1,30.16,SW,225,3.1,-999.0,54,-99.99,,,0.01,Acu-Link.com,2013-07-04 20:44:00,
2013-07-04 16:59:00,84.9,66.9,30.15,SSW,202,4.3,-999.0,55,-99.99,,,0.01,Acu-Link.com,2013-07-04 20:59:00,
2013-07-04 17:14:00,84.6,65.5,30.15,SW,225,3.1,-999.0,53,-99.99,,,0.01,Acu-Link.com,2013-07-04 21:14:00,
2013-07-04 17:30:00,85.1,66.6,30.14,WNW,292,4.7,-999.0,54,-99.99,,,0.01,Acu-Link.com,2013-07-04 21:30:00,
2013-07-04 17:45:00,85.1,67.1,30.15,WSW,247,2.2,-999.0,55,-99.99,,,0.01,Acu-Link.com,2013-07-04 21:45:00,
2013-07-04 18:00:00,88.2,67.1,30.14,WSW,247,2.7,-999.0,50,-99.99,,,0.01,Acu-Link.com,2013-07-04 22:00:00,
2013-07-04 18:15:00,87.3,66.9,30.14,West,270,3.8,-999.0,51,-99.99,,,0.01,Acu-Link.com,2013-07-04 22:15:00,
2013-07-04 18:30:00,82.4,67.6,30.14,West,270,2.7,-999.0,61,-99.99,,,0.01,Acu-Link.com,2013-07-04 22:30:00,
2013-07-04 18:46:00,84.6,67.1,30.14,NW,315,3.1,-999.0,56,-99.99,,,0.01,Acu-Link.com,2013-07-04 22:46:00,
2013-07-04 19:01:00,82.8,67.9,30.16,NW,315,4.3,-999.0,61,-99.99,,,0.01,Acu-Link.com,2013-07-04 23:01:00,
2013-07-04 19:16:00,79.7,67.8,30.15,SW,225,3.8,-999.0,67,-99.99,,,0.01,Acu-Link.com,2013-07-04 23:16:00,
2013-07-04 19:31:00,77.2,67.8,30.16,WSW,247,2.7,-999.0,73,-99.99,,,0.01,Acu-Link.com,2013-07-04 23:31:00,
2013-07-04 19:46:00,75.7,67.2,30.16,SW,225,2.7,-999.0,75,-99.99,,,0.01,Acu-Link.com,2013-07-04 23:46:00,
2013-07-04 20:01:00,75.0,67.3,30.17,WSW,247,5.1,-999.0,77,-99.99,,,0.01,Acu-Link.com,2013-07-05 00:01:00,
2013-07-04 20:17:00,73.9,67.0,30.17,SW,225,3.8,-999.0,79,-99.99,,,0.01,Acu-Link.com,2013-07-05 00:17:00,
2013-07-04 20:32:00,72.7,66.9,30.16,West,270,4.3,-999.0,82,-99.99,,,0.01,Acu-Link.com,2013-07-05 00:32:00,
2013-07-04 20:47:00,72.0,66.5,30.16,West,270,2.7,-999.0,83,-99.99,,,0.01,Acu-Link.com,2013-07-05 00:47:00,
2013-07-04 21:02:00,71.2,66.1,30.16,SSW,202,2.2,-999.0,84,-99.99,,,0.01,Acu-Link.com,2013-07-05 01:02:00,
2013-07-04 21:17:00,70.9,66.1,30.16,SW,225,2.2,-999.0,85,-99.99,,,0.01,Acu-Link.com,2013-07-05 01:17:00,
2013-07-04 21:33:00,70.9,66.1,30.16,SSW,202,2.7,-999.0,85,-99.99,,,0.01,Acu-Link.com,2013-07-05 01:33:00,
2013-07-04 21:48:00,70.5,66.1,30.17,SSW,202,2.7,-999.0,86,-99.99,,,0.01,Acu-Link.com,2013-07-05 01:48:00,
2013-07-04 22:03:00,70.3,65.9,30.17,West,270,0.0,-999.0,86,-99.99,,,0.01,Acu-Link.com,2013-07-05 02:03:00,
2013-07-04 22:18:00,70.0,65.9,30.17,WSW,247,1.6,-999.0,87,-99.99,,,0.01,Acu-Link.com,2013-07-05 02:18:00,
2013-07-04 22:34:00,69.6,65.6,30.17,SW,225,1.1,-999.0,87,-99.99,,,0.01,Acu-Link.com,2013-07-05 02:34:00,
2013-07-04 22:49:00,70.0,65.6,30.17,SSW,202,2.7,-999.0,86,-99.99,,,0.01,Acu-Link.com,2013-07-05 02:49:00,
2013-07-04 23:04:00,69.6,65.2,30.16,SW,225,2.2,-999.0,86,-99.99,,,0.01,Acu-Link.com,2013-07-05 03:04:00,
2013-07-04 23:19:00,69.6,65.2,30.16,SSW,202,2.7,-999.0,86,-99.99,,,0.01,Acu-Link.com,2013-07-05 03:19:00,
2013-07-04 23:34:00,69.3,65.2,30.16,SSW,202,2.7,-999.0,87,-99.99,,,0.01,Acu-Link.com,2013-07-05 03:34:00,
2013-07-04 23:50:00,69.3,65.2,30.16,SSW,202,2.2,-999.0,87,-99.99,,,0.01,Acu-Link.com,2013-07-05 03:50:00,